Location: Hebron
(33.0265°N, 96.8636°W)
Time: 09:17:24
(UTC+00:00)

Okean 1 - Pass Details

Date: 11 July 2022
Orbit: 532 x 553 km, 82.5° (Epoch: 14 August)

Event Time Altitude Azimuth Distance (km) Brightness Sun altitude
Rises 09:41:59 0° 332° (NNW) 2,679 7.0 -18.8°
Reaches altitude 10° 09:44:44 10° 312° (NW) 1,783 5.9 -18.4°
Enters shadow 09:46:00 15° 294° (WNW) 1,514 5.3 -18.2°
